Location: Blanot
(47.1713°N, 4.2340°E)
Time: 21:04:33
(UTC+00:00)

AQUA - Pass Details

Date: 14 July 2020
Orbit: 701 x 704 km, 98.2° (Epoch: 14 August)

Event Time Altitude Azimuth Distance (km) Brightness Sun altitude
Rises 01:26:34 0° 17° (NNE) 3,105 8.8 -17.8°
Reaches altitude 10° 01:28:52 10° 21° (NNE) 2,181 7.7 -17.6°
Maximum altitude 01:33:35 58° 101° (E) 819 4.2 -17.3°
Enters shadow 01:36:15 25° 172° (S) 1,403 4.9 -17.1°
